Location: Aldenham
(51.6667°N, 0.3500°W)
Time: 05:51:56
(UTC+00:00)

Okean 1 Rocket - Pass Details

Date: 18 November 2025
Orbit: 599 x 628 km, 82.5° (Epoch: 16 December)

Event Time Altitude Azimuth Distance (km) Brightness Sun altitude
Rises 18:01:34 0° 170° (S) 2,889 6.5 -17.4°
Reaches altitude 10° 18:03:52 10° 164° (SSE) 1,983 5.6 -17.7°
Maximum altitude 18:08:00 43° 93° (E) 879 3.3 -18.4°
Enters shadow 18:08:40 40° 69° (ENE) 923 3.4 -18.5°
